Flag for U.S.A. Weather past 2 weeks in Talkeetna, Alaska, U.S.A.

Now
48 °F

Light rain. Overcast.


Feels Like: 48 °F
Forecast: 47 / 55 °F
Wind: No wind

Location: Talkeetna Weather Reporting Station

Current Time: Sep 16, 2014 at 7:43:54 AM

Latest Report: Sep 16, 2014 at 6:53 AM


Visibility: 10 mi

Pressure: 29.72 "Hg

Humidity: 93%

Dew point: 46 °F

Location of TalkeetnaLocation

Historic Weather in Talkeetna — Graph

°F

Talkeetna temperature yesterday

Maximum temperature yesterday: 57 °F (at 4:53 PM)
Minimum temperature yesterday: 47 °F (at 1:59 AM)
Average temperature yesterday: 50 °F

Past Weeks' High & Low Weather Summary

 TemperatureHumidityPressure
High65 °F (Sep 14, 3:53 PM)97% (Sep 3, 1:53 AM)30.16 "Hg (Sep 3, 1:53 AM)
Low32 °F (Sep 1, 5:53 AM)36% (Sep 3, 6:53 PM)29.54 "Hg (Sep 15, 6:03 AM)
Average52 °F80%29.89 "Hg
* Reported Sep 1 5:53 AM — Sep 16 5:53 AM, Talkeetna, Weather by CustomWeather, © 2014

Note: Actual official high and low records may vary slightly from our data, if they occured in-between our weather recording intervals... More about our weather records

Advertising

Talkeetna weather history for previous 24 hours

 ConditionsComfort  
Time TempWeatherWind HumidityBarometerVisibility
5:53 AM
Sep 16
48 °FOvercast.No wind89%29.72 "Hg10 mi
4:53 AM48 °FOvercast.No wind93%29.72 "Hg10 mi
3:53 AM48 °FMostly cloudy.No wind93%29.72 "Hg10 mi
2:53 AM49 °FMostly cloudy.3 mph93%29.72 "Hg10 mi
1:53 AM50 °FOvercast.No wind93%29.72 "Hg10 mi
12:53 AM50 °FLight rain. Overcast.No wind93%29.71 "Hg10 mi
11:53 PM
Sep 15
51 °FOvercast.No wind89%29.70 "Hg10 mi
10:53 PM51 °FOvercast.3 mph92%29.69 "Hg10 mi
9:53 PM51 °FLight rain. Mostly cloudy.No wind92%29.70 "Hg10 mi
8:53 PM52 °FRain. Fog.No wind93%29.67 "Hg4 mi
7:53 PM53 °FMostly cloudy.No wind93%29.66 "Hg10 mi
6:53 PM54 °FLight rain. Mostly cloudy.No wind86%29.65 "Hg10 mi
5:53 PM57 °FMostly cloudy.No wind67%29.66 "Hg10 mi
4:53 PM57 °FMostly cloudy.No wind69%29.65 "Hg10 mi
3:53 PM56 °FLight rain. Overcast.No wind72%29.66 "Hg10 mi
2:53 PM56 °FMostly cloudy.5 mph70%29.66 "Hg10 mi
1:53 PM55 °FBroken clouds.3 mph74%29.65 "Hg10 mi
12:53 PM54 °FOvercast.3 mph77%29.65 "Hg10 mi
11:53 AM49 °FLight rain. Cloudy.7 mph93%29.62 "Hg10 mi
10:53 AM48 °FLight rain. Fog.No wind93%29.63 "Hg6 mi
10:00 AM47 °FLight rain. Partly sunny.5 mph97%29.59 "Hg9 mi
8:53 AM47 °FLight rain. Mostly cloudy.No wind97%29.57 "Hg9 mi
8:04 AM47 °FLight rain. Overcast.No wind97%29.55 "Hg10 mi
7:53 AM47 °FFog.No wind97%29.56 "Hg6 mi
Weather by CustomWeather, © 2014

See weather overviewHow to use our weather pages